Broken Bow, NE

1:36 PM CDT on April 23, 2017 (GMT -0500)
Broken Bow Municipal

Weather History for KBBW - January, 2014

Change the Weather History Date:

Monday, January 6, 2014

  Actual Average Record
Temperature  
Mean Temperature 1 °F 25 °F  
Max Temperature 13 °F 37 °F 63 °F (1965)
Min Temperature -11 °F 14 °F -26 °F (1912)
Degree Days  
Heating Degree Days 64 40  
Month to date heating degree days 307 240  
Cooling Degree Days 0 0  
Month to date cooling degree days 0 0  
Year to date cooling degree days 0 0  
Moisture  
Dew Point -13 °F    
Average Humidity 54    
Maximum Humidity 69    
Minimum Humidity 38    
Precipitation  
Precipitation 0.00 in 0.01 in 0.23 in (1989)
Sea Level Pressure  
Sea Level Pressure 30.49 in    
Wind  
Wind Speed 11 mph (WNW)    
Max Wind Speed 25 mph    
Max Gust Speed 32 mph    
Visibility 10 miles    
Events      
T = Trace of Precipitation, MM = Missing Value Source: NWS Daily Summary

Daily Weather History Graph

Daily Weather History Graph

Search for Another Location

Airport or City:

Trip Planner

Search our weather history database for the weather conditions in past years. The results will help you decide how hot, cold, wet, or windy it might be!

Date:

Astronomy

Jan. 06, 2014 Rise Set
Actual Time 8:04 AM CST 5:24 PM CST
Civil Twilight 7:33 AM CST 5:55 PM CST
Nautical Twilight 6:59 AM CST 6:29 PM CST
Astronomical Twilight 6:25 AM CST 7:03 PM CST
Moon 11:16 AM CST (1/6) No Moon Set
Length of Visible Light 10h 21m
Length of Day
9h 19m
Waxing Crescent, 35% of the Moon is Illuminated
Jan 6
Waxing Crescent
Jan 7
First Quarter
Jan 15
Full
Jan 23
Last Quarter
Jan 30
New

Hourly Weather History & Observations

Time (CST) Temp. Windchill Dew Point Humidity Pressure Visibility Wind Dir Wind Speed Gust Speed Precip Events Conditions
12:53 AM -9.9 °F -31.3 °F -20.9 °F 59% 30.61 in 10.0 mi NW 13.8 mph - N/A   Clear
1:53 AM -9.9 °F -30.5 °F -20.0 °F 61% 30.59 in 10.0 mi WNW 12.7 mph - N/A   Clear
2:53 AM -9.9 °F -30.5 °F -20.0 °F 61% 30.58 in 10.0 mi WNW 12.7 mph - N/A   Clear
3:53 AM -9.9 °F -30.5 °F -18.9 °F 65% 30.59 in 10.0 mi WNW 12.7 mph - N/A   Clear
4:53 AM -9.9 °F -30.5 °F -18.9 °F 65% 30.59 in 10.0 mi NW 12.7 mph - N/A   Clear
5:53 AM -9.0 °F -29.3 °F -18.9 °F 62% 30.60 in 10.0 mi WNW 12.7 mph - N/A   Clear
6:53 AM -9.0 °F -29.3 °F -18.0 °F 65% 30.58 in 10.0 mi WNW 12.7 mph - N/A   Clear
7:53 AM -8.0 °F -30.3 °F -18.0 °F 61% 30.59 in 10.0 mi WNW 16.1 mph - N/A   Clear
8:53 AM -6.0 °F -26.3 °F -17.0 °F 59% 30.61 in 10.0 mi WNW 13.8 mph - N/A   Clear
9:53 AM -2.0 °F -21.2 °F -14.1 °F 57% 30.61 in 10.0 mi WNW 13.8 mph - N/A   Clear
10:53 AM 1.9 °F -20.2 °F -11.9 °F 52% 30.60 in 10.0 mi NW 21.9 mph 27.6 mph N/A   Clear
11:53 AM 5.0 °F -15.7 °F -11.0 °F 48% 30.56 in 10.0 mi NNW 20.7 mph 31.1 mph N/A   Clear
12:53 PM 8.1 °F -11.7 °F -9.9 °F 44% 30.52 in 10.0 mi NW 20.7 mph 27.6 mph N/A   Clear
1:53 PM 10.0 °F -10.0 °F -11.0 °F 38% 30.48 in 10.0 mi NW 23.0 mph 27.6 mph N/A   Clear
2:53 PM 10.9 °F -7.0 °F -11.0 °F 37% 30.46 in 10.0 mi WNW 18.4 mph 23.0 mph N/A   Clear
3:53 PM 12.9 °F -3.4 °F -9.9 °F 35% 30.44 in 10.0 mi NW 16.1 mph 24.2 mph N/A   Clear
4:53 PM 12.0 °F 1.5 °F -9.9 °F 37% 30.43 in 10.0 mi NNW 6.9 mph - N/A   Clear
5:53 PM 1.9 °F - -11.0 °F 55% 30.42 in 10.0 mi Calm Calm - N/A   Clear
6:53 PM -2.9 °F - -11.9 °F 65% 30.42 in 10.0 mi Calm Calm - N/A   Clear
7:53 PM -2.9 °F - -11.0 °F 68% 30.40 in 10.0 mi Calm Calm - N/A   Clear
8:53 PM 3.9 °F - -6.0 °F 64% 30.36 in 10.0 mi Calm Calm - N/A   Clear
9:53 PM 7.0 °F 0.1 °F -4.0 °F 61% 30.31 in 10.0 mi SSW 3.5 mph - N/A   Scattered Clouds
10:53 PM 8.1 °F - -0.9 °F 67% 30.25 in 10.0 mi Calm Calm - N/A   Clear
11:53 PM 7.0 °F 0.1 °F 1.0 °F 77% 30.22 in 10.0 mi SE 3.5 mph - N/A   Overcast